STARLINK-34981, 65198

Orbit data source: Space-Track

STARLINK-34981, 65198 is a payload satellite owned by SpaceX/Seattle (US) in LEO that was launched on Thu, 14 Aug 2025 UTC via an FALCON 9 launch vehicle from the Air Force Eastern Test Range (AFETR). Payload-class satellites include a variety of spacecraft equipped with specific instruments for various scientific and technological missions. These include communications satellites like Starlink; space stations such as the ISS; scientific satellites like the Hubble; Earth observation satellites from companies like Planet Labs, Umbra, and HawkEye 360; GPS; miniature CubeSats for education and research; and military/defense satellites.

Loading next visibility...
Identifier
65198, 2025-176A
Orbit
LEO
Country
Flag of USUS
Related business
Manufacturer
SpaceX/Seattle
Mission
Operational Commercial Communications
Bus & Motor
STARLINK V2MO, Unknown motor
Mass
575 kg wet, ~530 kg dry
Launch date (UTC)
2025-08-14 (10 months ago)
Launch vehicle
FALCON 9
Launch site
Air Force Eastern Test Range (AFETR)
Object type
Payload
Rocket body
Debris
Shape & HBR
Box + 2 Pan, 17.7 m
Radar Cross Section
36.964 m², Large (>1 m²)

Expand to show TLE details & history
Last TLE update: 22 hours ago

TLE from 22 hours ago
0 STARLINK-34981
1 65198U 25176A   26170.93132429  .00012643  00000-0  43815-3 0  9999
2 65198  53.1582  40.6920 0001199  92.5429 267.5709 15.30208294 48739
Epoch: 2026-06-19T22:21Z
TLE epoch observation values (Epoch: 2026-06-19T22:21:06.418Z)
Latitude
-0.00003°
Longitude
157.26201°
Altitude
476.125 km
Speed
7.629 km/s
True Right ascension
02h 42m 46s
True Declination
0° 00' 00"
Sunlit
Object was in daylight at epoch
Visualization orbit readout
Latitude
Unknown
Longitude
Unknown
Altitude
Unknown
Speed
Unknown
Apparent Right ascension
Unknown
Apparent Declination
Unknown
Sunlit
N/A
Visualization observer readout
Local Sidereal Time
07:22:39
Azimuth
Unknown
Elevation
Unknown
Doppler factor
Unknown
Orbital elements
Apogee altitude
476.269 km
Perigee altitude
474.625 km
Semi-major axis
6,853.584 km
Eccentricity
0.00012
Inclination
53.1582°
RAAN
40.692°
Arg. of periapsis
92.5429°
True anomaly
267.55717°
Mean anomaly
267.5709°
Eccentric anomaly
267.56404°
Mean motion
3.82531 °/min
Orbital period
94.11 mins
BSTAR
0.00043815
Loading maneuver chart data...
Computing Atmospheric mass density...
Loading historical data...
Loading historical data...
Loading historical data...
Loading historical data...
Loading historical data...
Loading historical data...
Loading historical data...

Documentation

Showing up to 5 results
|